Time_in_sec,gx,gy,gz
1323443397.55262756,0.20168496,0.01458539,-0.97934184
1323443397.60564518,0.20164910,0.01478317,-0.97934626
1323443397.65351415,0.20146199,0.01468253,-0.97938628
1323443397.70484257,0.20151021,0.01481060,-0.97937443
1323443397.75750256,0.20160161,0.01446054,-0.97936085
1323443397.80491376,0.20142460,0.01455950,-0.97939581
1323443397.85259581,0.20161420,0.01467840,-0.97935502
1323443397.90553570,0.20175730,0.01477877,-0.97932404
1323443397.95257235,0.20161515,0.01500823,-0.97934983
1323443398.00555658,0.20134113,0.01494255,-0.97940720
1323443398.05256176,0.20127898,0.01516642,-0.97941654
1323443398.10463166,0.20128858,0.01518802,-0.97941423
1323443398.15349841,0.20120952,0.01530877,-0.97942859
1323443398.20566344,0.20102184,0.01547647,-0.97946450
1323443398.25366306,0.20093772,0.01578100,-0.97947690
1323443398.30552459,0.20083296,0.01581064,-0.97949791
1323443398.35254169,0.20066528,0.01583219,-0.97953192
1323443398.40558338,0.20054190,0.01596937,-0.97955496
1323443398.45264459,0.20061150,0.01611760,-0.97953828
1323443398.50553274,0.20036184,0.01608679,-0.97958989
1323443398.55358982,0.20024129,0.01600607,-0.97961586
1323443398.60463905,0.20050664,0.01606917,-0.97956055
1323443398.65265083,0.20054273,0.01610996,-0.97955249
1323443398.70450997,0.20047513,0.01619228,-0.97956497
1323443398.75257158,0.20061762,0.01615931,-0.97953634
1323443398.80551338,0.20063989,0.01600091,-0.97953438
1323443398.85250020,0.20065322,0.01593867,-0.97953267
1323443398.90537882,0.20062991,0.01607112,-0.97953528
1323443398.95351434,0.20069056,0.01623838,-0.97952009
1323443399.00552440,0.20052056,0.01623817,-0.97955491
1323443399.05661035,0.20066278,0.01591629,-0.97953107
1323443399.10539031,0.20060536,0.01584729,-0.97954395
1323443399.15257597,0.20068471,0.01592086,-0.97952650
1323443399.20552516,0.20073156,0.01590750,-0.97951712
1323443399.25390959,0.20085519,0.01597711,-0.97949065
1323443399.30455709,0.20076960,0.01601536,-0.97950757
1323443399.35355997,0.20061800,0.01612592,-0.97953681
1323443399.40537167,0.20072676,0.01640410,-0.97950992
1323443399.45263433,0.20085645,0.01659941,-0.97948004
1323443399.50555348,0.20087884,0.01651556,-0.97947686
1323443399.55265331,0.20093554,0.01653854,-0.97946485
1323443399.60549450,0.20099768,0.01658080,-0.97945138
1323443399.65352249,0.20091522,0.01660490,-0.97946789
1323443399.70468974,0.20109793,0.01660194,-0.97943045
1323443399.75374818,0.20089910,0.01650573,-0.97947287
1323443399.80602098,0.20102267,0.01644013,-0.97944862
1323443399.85328889,0.20099649,0.01643788,-0.97945404
1323443399.90492249,0.20096635,0.01637752,-0.97946123
1323443399.95303011,0.20100657,0.01624149,-0.97945524
1323443400.00872970,0.20101024,0.01634749,-0.97945273
1323443400.05251598,0.20099317,0.01649322,-0.97945379
1323443400.10514164,0.20112750,0.01636696,-0.97942833
1323443400.15379667,0.20102871,0.01632600,-0.97944929
1323443400.20572162,0.20098740,0.01608859,-0.97946170
1323443400.25265455,0.20083448,0.01629960,-0.97948958
1323443400.30495214,0.20079212,0.01621543,-0.97949966
1323443400.35263991,0.20068066,0.01632235,-0.97952073
1323443400.40553308,0.20045498,0.01623418,-0.97956840
1323443400.45254040,0.20058391,0.01607240,-0.97954468
1323443400.50453663,0.20008089,0.01669808,-0.97963708
1323443400.55349517,0.20004160,0.01685500,-0.97964242
1323443400.60555720,0.20028774,0.01704206,-0.97958889
1323443400.65280104,0.20018773,0.01710126,-0.97960830
1323443400.70552588,0.20008766,0.01729705,-0.97962531
1323443400.75255299,0.19995860,0.01731147,-0.97965140
1323443400.80549502,0.19983327,0.01685167,-0.97968499
1323443400.85255003,0.20000634,0.01682013,-0.97965022
1323443400.90469480,0.20003138,0.01676830,-0.97964599
1323443400.95267439,0.19993803,0.01703207,-0.97966050
1323443401.00168562,0.20013837,0.01738703,-0.97961335
1323443401.05281186,0.20027211,0.01719650,-0.97958939
1323443401.10469460,0.20050891,0.01739944,-0.97953736
1323443401.15358877,0.20062633,0.01739837,-0.97951334
1323443401.20551109,0.20091015,0.01734537,-0.97945610
1323443401.25260925,0.20098349,0.01744826,-0.97943923
1323443401.30455399,0.20083759,0.01718453,-0.97947381
1323443401.35353947,0.20082759,0.01712729,-0.97947687
1323443401.40458322,0.20100258,0.01706441,-0.97944207
1323443401.45354486,0.20106745,0.01686427,-0.97943222
1323443401.50454378,0.20143019,0.01732687,-0.97934961
1323443401.55262733,0.20123102,0.01737519,-0.97938970
1323443401.60553265,0.20112640,0.01738127,-0.97941108
1323443401.65359235,0.20115082,0.01730114,-0.97940748
1323443401.70253038,0.20125213,0.01737863,-0.97938530
1323443401.75371099,0.20101765,0.01756964,-0.97943004
1323443401.80545497,0.20082046,0.01749531,-0.97947183
1323443401.85257173,0.20084864,0.01760443,-0.97946409
1323443401.90554881,0.20087873,0.01772556,-0.97945574
1323443401.95359874,0.20075202,0.01759041,-0.97948415
1323443402.00549531,0.20054748,0.01768249,-0.97952439
1323443402.05352378,0.20035848,0.01774307,-0.97956197
1323443402.10531545,0.20028004,0.01787207,-0.97957567
1323443402.15349865,0.20022543,0.01784572,-0.97958732
1323443402.20708919,0.20019562,0.01802610,-0.97959010
1323443402.25281382,0.20013109,0.01806624,-0.97960255
1323443402.30529332,0.20013108,0.01805191,-0.97960282
1323443402.35324025,0.20022011,0.01799462,-0.97958568
1323443402.40551066,0.20039233,0.01808420,-0.97954881
1323443402.45252156,0.20022542,0.01821051,-0.97958060
1323443402.50514245,0.19984489,0.01812195,-0.97965995
1323443402.55353093,0.19981209,0.01792756,-0.97967022
1323443402.60525227,0.19999696,0.01785014,-0.97963391
1323443402.65327859,0.20007039,0.01794007,-0.97961727
1323443402.70554709,0.19989159,0.01799268,-0.97965280
1323443402.75263476,0.20004277,0.01804216,-0.97962104
1323443402.80552101,0.20023286,0.01773721,-0.97958777
1323443402.85313034,0.20046203,0.01765620,-0.97954236
1323443402.90465689,0.20029258,0.01758493,-0.97957830
1323443402.95305157,0.20005661,0.01774547,-0.97962363
1323443403.00458455,0.20002996,0.01748316,-0.97963379
1323443403.06549287,0.19990202,0.01765423,-0.97965683
1323443403.11254907,0.19999154,0.01784831,-0.97963504
1323443403.15357447,0.20006137,0.01779131,-0.97962182
1323443403.20551443,0.20010940,0.01770228,-0.97961363
1323443403.25266528,0.19983447,0.01784841,-0.97966710
1323443403.30488515,0.20042959,0.01769165,-0.97954836
1323443403.35349250,0.20037423,0.01754360,-0.97956235
1323443403.40565825,0.20010485,0.01734446,-0.97962096
1323443403.45255971,0.19998322,0.01742726,-0.97964432
1323443403.50483871,0.20023671,0.01683771,-0.97960285
1323443403.55255508,0.20021161,0.01693266,-0.97960635
1323443403.60549235,0.20009841,0.01705354,-0.97962738
1323443403.65369058,0.19991330,0.01720150,-0.97966258
1323443403.70220876,0.19988447,0.01743327,-0.97966437
1323443403.75349355,0.19989035,0.01722778,-0.97966681
1323443403.80566621,0.20001312,0.01703659,-0.97964509
1323443403.85258055,0.19986521,0.01711988,-0.97967383
1323443403.90468502,0.20013504,0.01719405,-0.97961744
1323443403.95351887,0.19994450,0.01740258,-0.97965267
1323443404.00554347,0.20024566,0.01657157,-0.97960556
1323443404.05351186,0.20047715,0.01662803,-0.97955726
1323443404.10550714,0.20053802,0.01655860,-0.97954597
1323443404.15356302,0.20031720,0.01657818,-0.97959082
1323443404.20455647,0.20039295,0.01665597,-0.97957401
1323443404.25268459,0.20027476,0.01672907,-0.97959694
1323443404.30552697,0.20031266,0.01634542,-0.97959566
1323443404.35257363,0.20028889,0.01630921,-0.97960113
1323443404.40549397,0.20006030,0.01645809,-0.97964535
1323443404.45357728,0.20009277,0.01641607,-0.97963942
1323443404.50454021,0.20020604,0.01602405,-0.97962277
1323443404.55302620,0.20051967,0.01608141,-0.97955768
1323443404.60458398,0.20040844,0.01626808,-0.97957736
1323443404.66552258,0.20036797,0.01646287,-0.97958239
1323443404.70469832,0.20024881,0.01670599,-0.97960264
1323443404.75254631,0.20019502,0.01671598,-0.97961346
1323443404.80551124,0.20046081,0.01615717,-0.97956848
1323443404.85349679,0.20039508,0.01608129,-0.97958318
1323443404.90557265,0.20039924,0.01603637,-0.97958306
1323443404.95363855,0.20040629,0.01604141,-0.97958154
1323443405.00534129,0.20056594,0.01599358,-0.97954965
1323443405.05257010,0.20045144,0.01601842,-0.97957268
1323443405.10530829,0.20043525,0.01612037,-0.97957432
1323443405.15355492,0.20046612,0.01628899,-0.97956521
1323443405.20552421,0.20048244,0.01614500,-0.97956426
1323443405.25333071,0.20031873,0.01633817,-0.97959454
1323443405.30570245,0.20057630,0.01595634,-0.97954813
1323443405.35791373,0.20050980,0.01588434,-0.97956292
1323443405.40528321,0.20053680,0.01614948,-0.97955305
1323443405.45343280,0.20021428,0.01606424,-0.97962043
1323443405.50517082,0.20052628,0.01583626,-0.97956032
1323443405.55519056,0.20040451,0.01560075,-0.97958902
1323443405.60549188,0.20055419,0.01570551,-0.97955671
1323443405.65364981,0.20069257,0.01587803,-0.97952559
1323443405.70214844,0.20055040,0.01584873,-0.97955518
1323443405.75366902,0.20064217,0.01582644,-0.97953675
1323443405.80552793,0.20051472,0.01545259,-0.97956882
1323443405.85353327,0.20032648,0.01544517,-0.97960745
1323443405.90501881,0.19999449,0.01550227,-0.97967438
1323443405.95355177,0.20007030,0.01558679,-0.97965756
1323443406.00549579,0.20025159,0.01465020,-0.97963497
1323443406.05355191,0.20028241,0.01472066,-0.97962761
1323443406.10454893,0.20007876,0.01490869,-0.97966638
1323443406.15307093,0.19994283,0.01522979,-0.97968920
1323443406.20458746,0.19975967,0.01526594,-0.97972600
1323443406.25288630,0.20019765,0.01466526,-0.97964577
1323443406.30550551,0.20005188,0.01459416,-0.97967661
1323443406.35360885,0.20012230,0.01463678,-0.97966159
1323443406.40552449,0.20031391,0.01479123,-0.97962011
1323443406.45260763,0.20014540,0.01492363,-0.97965254
1323443406.50494838,0.20016624,0.01520144,-0.97964401
1323443406.55684328,0.19986489,0.01531405,-0.97970378
1323443406.60471797,0.19979913,0.01538835,-0.97971603
1323443406.65288019,0.19954620,0.01536493,-0.97976795
1323443406.71349812,0.19934057,0.01524774,-0.97981164
1323443406.75354028,0.19949951,0.01499508,-0.97978319
1323443406.80549383,0.19966148,0.01493582,-0.97975110
1323443406.86552000,0.19961952,0.01507145,-0.97975757
1323443406.90467143,0.19945774,0.01519731,-0.97978857
1323443406.95368481,0.19940411,0.01493546,-0.97980352
1323443407.00568819,0.19950936,0.01402209,-0.97979559
1323443407.05266190,0.19959578,0.01411763,-0.97977662
1323443407.10459256,0.19997706,0.01414030,-0.97969854
1323443407.15270376,0.20011287,0.01406079,-0.97967195
1323443407.20551205,0.20028684,0.01397146,-0.97963768
1323443407.25260520,0.20016012,0.01411077,-0.97966158
1323443407.30566621,0.20056802,0.01396425,-0.97958025
1323443407.35352325,0.20060763,0.01404814,-0.97957094
1323443407.40464234,0.20059790,0.01410180,-0.97957216
1323443407.45334816,0.20038706,0.01440436,-0.97961091
1323443407.50460768,0.20057464,0.01384673,-0.97958057
1323443407.55261970,0.20059837,0.01407914,-0.97957239
1323443407.60552359,0.20049299,0.01429134,-0.97959089
1323443407.65254021,0.20047002,0.01423471,-0.97959642
1323443407.70457244,0.20046902,0.01437086,-0.97959464
1323443407.75351834,0.20043972,0.01434724,-0.97960098
1323443407.80547047,0.20015909,0.01409482,-0.97966202
1323443407.85283113,0.20017199,0.01437706,-0.97965528
1323443407.91326189,0.20021287,0.01440952,-0.97964645
1323443407.95264554,0.20046396,0.01474937,-0.97959005
1323443408.00525784,0.20040845,0.01451002,-0.97960498
1323443408.05252814,0.20054556,0.01462211,-0.97957525
1323443408.10555291,0.20049329,0.01465387,-0.97958548
1323443408.15355420,0.20067084,0.01488239,-0.97954567
1323443408.20462465,0.20074129,0.01512104,-0.97952758
1323443408.25257325,0.20076767,0.01470123,-0.97952857
1323443408.30567431,0.20043360,0.01477661,-0.97959585
1323443408.35254145,0.20026195,0.01470742,-0.97963199
1323443408.40551472,0.20004326,0.01474106,-0.97967617
1323443408.45290351,0.20009472,0.01452050,-0.97966895
1323443408.50555944,0.19996288,0.01456534,-0.97969521
1323443408.55352712,0.19992249,0.01454268,-0.97970379
1323443408.60452056,0.20001897,0.01476273,-0.97968080
1323443408.65265107,0.19996214,0.01473942,-0.97969275
1323443408.71303391,0.19986135,0.01479426,-0.97971249
1323443408.75371599,0.19971917,0.01507488,-0.97973721
1323443408.80502725,0.19949629,0.01503515,-0.97978323
1323443408.85350442,0.19932336,0.01487565,-0.97982086
1323443408.90516782,0.19924264,0.01476643,-0.97983893
1323443408.95352173,0.19902031,0.01490197,-0.97988206
1323443409.00247908,0.19849172,0.01485484,-0.97998999
1323443409.05250764,0.19850080,0.01483702,-0.97998842
1323443409.10553002,0.19867732,0.01467801,-0.97995504
1323443409.15251398,0.19876382,0.01475916,-0.97993628
1323443409.20551252,0.19886043,0.01505295,-0.97991221
1323443409.26451302,0.19946380,0.01410123,-0.97980373
1323443409.30450678,0.19950943,0.01405695,-0.97979507
1323443409.35376859,0.19951578,0.01409132,-0.97979329
1323443409.40551519,0.19963561,0.01417480,-0.97976768
1323443409.45287704,0.19938094,0.01453903,-0.97981420
1323443409.50476122,0.19922546,0.01445514,-0.97984706
1323443409.55253601,0.19932720,0.01454280,-0.97982507
1323443409.60553551,0.19934514,0.01472122,-0.97981876
1323443409.65275598,0.19927911,0.01480031,-0.97983100
1323443409.70465398,0.19917625,0.01503613,-0.97984832
1323443409.76560807,0.19988014,0.01453334,-0.97971257
1323443409.80566812,0.19970759,0.01420564,-0.97975256
1323443409.85263610,0.19953260,0.01404626,-0.97979051
1323443409.90476418,0.19944766,0.01441257,-0.97980248
1323443409.96567726,0.19969185,0.01446985,-0.97975190
1323443410.00160193,0.19968900,0.01317190,-0.97977079
1323443410.06552100,0.19955643,0.01318299,-0.97979765
1323443410.10566759,0.19951036,0.01333050,-0.97980504
1323443410.15350175,0.19946264,0.01324311,-0.97981594
1323443410.20553470,0.19941288,0.01335831,-0.97982450
1323443410.25273108,0.19919263,0.01242782,-0.97988155
1323443410.31355309,0.19928162,0.01240453,-0.97986375
1323443410.35218477,0.19951662,0.01241718,-0.97981577
1323443410.40549421,0.19961985,0.01262621,-0.97979207
1323443410.45309138,0.19988936,0.01255935,-0.97973798
1323443410.50454736,0.19969502,0.01259138,-0.97977720
1323443410.55349970,0.19963213,0.01286101,-0.97978651
1323443410.60506296,0.19963387,0.01275025,-0.97978760
1323443410.65350533,0.19962522,0.01294642,-0.97978679
1323443410.70547795,0.19930974,0.01302975,-0.97984991
1323443410.75255728,0.20044302,0.01276648,-0.97962218
1323443410.80551195,0.20049685,0.01293704,-0.97960892
1323443410.86454391,0.20036295,0.01307303,-0.97963452
1323443410.90716815,0.20030784,0.01323172,-0.97964365
1323443410.95374417,0.20040773,0.01303342,-0.97962588
1323443411.00472498,0.20166432,0.01240328,-0.97937616
1323443411.05257988,0.20160184,0.01268197,-0.97938545
1323443411.10533571,0.20143942,0.01259854,-0.97941995
1323443411.15343308,0.20142990,0.01268457,-0.97942080
1323443411.20560503,0.20130990,0.01265730,-0.97944582
1323443411.25316048,0.20202148,0.01189296,-0.97930888
1323443411.30464602,0.20203958,0.01192467,-0.97930476
1323443411.35365224,0.20188489,0.01202689,-0.97933541
1323443411.40452719,0.20180369,0.01212039,-0.97935099
1323443411.45252776,0.20188788,0.01212034,-0.97933364
1323443411.51317525,0.20229007,0.01140897,-0.97925919
1323443411.55323863,0.20227302,0.01130644,-0.97926390
1323443411.60549474,0.20234073,0.01112404,-0.97925200
1323443411.65351915,0.20236391,0.01135896,-0.97924452
1323443411.70565224,0.20218590,0.01093890,-0.97928607
1323443411.75353098,0.20289421,0.01059408,-0.97914335
1323443411.80465364,0.20289796,0.01050677,-0.97914352
1323443411.85253215,0.20283148,0.01053812,-0.97915695
1323443411.90506768,0.20277932,0.01083561,-0.97916451
1323443411.96464062,0.20264257,0.01067095,-0.97919463
1323443412.00553679,0.20295962,0.00989537,-0.97913711
1323443412.05251598,0.20302977,0.00990945,-0.97912242
1323443412.10554981,0.20303684,0.00990366,-0.97912101
1323443412.15374780,0.20280126,0.00995144,-0.97916935
1323443412.20564055,0.20268560,0.00997238,-0.97919309
1323443412.25255871,0.20078589,0.01118826,-0.97957126
1323443412.31353998,0.20089511,0.01132996,-0.97954724
1323443412.35356307,0.20083180,0.01125696,-0.97956106
1323443412.40198970,0.20088560,0.01120735,-0.97955060
1323443412.45282316,0.20102433,0.01114737,-0.97952282
1323443412.50493288,0.20068607,0.01240662,-0.97957704
1323443412.55356193,0.20069870,0.01242005,-0.97957428
1323443412.60550880,0.20077537,0.01260071,-0.97955626
1323443412.65278292,0.20065870,0.01236821,-0.97958313
1323443412.71254706,0.20065570,0.01213652,-0.97958665
1323443412.75354266,0.19965902,0.01233523,-0.97978779
1323443412.80549479,0.19953564,0.01249930,-0.97981085
1323443412.85249829,0.19972848,0.01246914,-0.97977194
1323443412.90471339,0.19974395,0.01262305,-0.97976681
1323443412.95369673,0.19973920,0.01259646,-0.97976813
1323443413.00569391,0.19950970,0.01264255,-0.97981429
1323443413.05388379,0.19965841,0.01266213,-0.97978375
1323443413.10551381,0.19946334,0.01256902,-0.97982468
1323443413.15366673,0.19966235,0.01265321,-0.97978306
1323443413.20151782,0.19945399,0.01259427,-0.97982626
1323443413.25251245,0.19910460,0.01223253,-0.97990190
1323443413.30459023,0.19915879,0.01245367,-0.97988810
1323443413.36453199,0.19890833,0.01237072,-0.97994002
1323443413.40860748,0.19905677,0.01233922,-0.97991027
1323443413.45255232,0.19884931,0.01252246,-0.97995007
1323443413.50449777,0.19938075,0.01244543,-0.97984306
1323443413.55263352,0.19942302,0.01258663,-0.97983266
1323443413.60552263,0.19945234,0.01264265,-0.97982597
1323443413.66537857,0.19943627,0.01283759,-0.97982670
1323443413.70551848,0.19923987,0.01298549,-0.97986471
1323443413.75353217,0.19903602,0.01299151,-0.97990606
1323443413.80458713,0.19933836,0.01252333,-0.97985069
1323443413.85332584,0.19918329,0.01263191,-0.97988084
1323443413.91251922,0.19922692,0.01273945,-0.97987057
1323443413.95353436,0.19929887,0.01261998,-0.97985749
1323443414.00552678,0.19960426,0.01249253,-0.97979696
1323443414.05250120,0.19984391,0.01234085,-0.97975003
1323443414.10535765,0.19992637,0.01250075,-0.97973118
1323443414.15377045,0.19991814,0.01244460,-0.97973357
1323443414.20864892,0.19966505,0.01256576,-0.97978363
1323443414.25316429,0.20006042,0.01294807,-0.97969800
1323443414.30551934,0.19999541,0.01274288,-0.97971397
1323443414.35342908,0.20002621,0.01280807,-0.97970683
1323443414.40593195,0.19988075,0.01289092,-0.97973543
1323443414.45330572,0.19976143,0.01305643,-0.97975757
1323443414.50479841,0.20015913,0.01277446,-0.97968012
1323443414.55355215,0.19981193,0.01301828,-0.97974778
1323443414.60513997,0.19982220,0.01305464,-0.97974520
1323443414.65251422,0.19979322,0.01291375,-0.97975298
1323443414.70510578,0.19958397,0.01290165,-0.97979579
1323443414.75254416,0.20085814,0.01225858,-0.97954364
1323443414.80552483,0.20062250,0.01234737,-0.97959081
1323443414.85252309,0.20062770,0.01242619,-0.97958875
1323443414.90467858,0.20075397,0.01234166,-0.97956395
1323443414.96498728,0.20078269,0.01215047,-0.97956045
1323443415.00451612,0.20162082,0.01156090,-0.97939542
1323443415.05260277,0.20144672,0.01140562,-0.97943307
1323443415.11258698,0.20150736,0.01150671,-0.97941941
1323443415.15254784,0.20173483,0.01143332,-0.97937344
1323443415.20550418,0.20191767,0.01162148,-0.97933355
1323443415.25284100,0.20172529,0.01108067,-0.97937946
1323443415.30566454,0.20149803,0.01101132,-0.97942702
1323443415.35369658,0.20161295,0.01101693,-0.97940331
1323443415.40554953,0.20154377,0.01114445,-0.97941611
